JLY1182 SAEZ-SBGL

Flight info

Callsign JLY1182
Flight time N/A
Altitude 39000
Route KUKEN1A KUKEN UM654 GAMOT DCT USTUN DCT DOKRO UN857 AKNUB
Aircraft B77W/H-SDE1E2E3FGHIJ2J3J4J5M1RWXY/LB1D1

Departure

Time 2026-05-05 23:54
Airport Ezeiza International Airport - Ministro Pistarini (SAEZ)

Arrival

Time N/A
Airport Rio Galeão – Tom Jobim International Airport (SBGL)
Time Latitude Longitude Altitude Speed Heading
2026-05-05 23:40 -34.81655 -58.54361 84 ft 0 kts 11°
2026-05-05 23:48 -34.81675 -58.54366 83 ft 4 kts 14°
2026-05-05 23:48 -34.81701 -58.54373 86 ft 4 kts 17°
2026-05-05 23:48 -34.81727 -58.54384 86 ft 4 kts 17°
2026-05-05 23:49 -34.81749 -58.54386 86 ft 3 kts 334°
2026-05-05 23:49 -34.81766 -58.54368 86 ft 4 kts 278°
2026-05-05 23:49 -34.81768 -58.54337 86 ft 2 kts 278°
2026-05-05 23:49 -34.81768 -58.54331 86 ft 0 kts 278°
2026-05-05 23:51 -34.81768 -58.54332 86 ft 1 kts 278°
2026-05-05 23:51 -34.81762 -58.54381 86 ft 14 kts 278°
2026-05-05 23:51 -34.81759 -58.54569 83 ft 22 kts 258°
2026-05-05 23:51 -34.81778 -58.54696 83 ft 17 kts 266°
2026-05-05 23:52 -34.81762 -58.54852 85 ft 20 kts 282°
2026-05-05 23:52 -34.81730 -58.55027 82 ft 18 kts 282°
2026-05-05 23:52 -34.81725 -58.55055 80 ft 1 kts 283°
2026-05-05 23:52 -34.81721 -58.55081 85 ft 5 kts 282°
2026-05-05 23:53 -34.81711 -58.55138 82 ft 9 kts 282°
2026-05-05 23:53 -34.81700 -58.55225 83 ft 12 kts 269°
2026-05-05 23:53 -34.81742 -58.55324 85 ft 14 kts 212°
2026-05-05 23:53 -34.81839 -58.55310 86 ft 16 kts 151°
2026-05-05 23:54 -34.81917 -58.55210 85 ft 18 kts 117°
2026-05-05 23:54 -34.81983 -58.54908 89 ft 83 kts 102°
2026-05-05 23:54 -34.82195 -58.53723 118 ft 199 kts 102°
2026-05-05 23:54 -34.82551 -58.51808 858 ft 242 kts 102°
2026-05-05 23:55 -34.82944 -58.49930 1834 ft 227 kts 110°
2026-05-05 23:55 -34.83869 -58.48241 2699 ft 254 kts 135°
2026-05-05 23:55 -34.85173 -58.46695 3505 ft 268 kts 132°
2026-05-05 23:55 -34.86411 -58.44965 4473 ft 276 kts 125°
2026-05-05 23:56 -34.87451 -58.42979 5554 ft 282 kts 121°
2026-05-05 23:56 -34.88450 -58.40877 6533 ft 293 kts 121°
2026-05-05 23:56 -34.89472 -58.38703 7546 ft 296 kts 121°
2026-05-05 23:56 -34.90486 -58.36532 8766 ft 292 kts 119°
2026-05-05 23:57 -34.91148 -58.34181 9750 ft 298 kts 101°
2026-05-05 23:57 -34.91483 -58.31664 10634 ft 308 kts 100°
2026-05-05 23:57 -34.91846 -58.28977 10991 ft 337 kts 101°
2026-05-05 23:57 -34.92261 -58.26023 11237 ft 369 kts 101°
2026-05-05 23:58 -34.92675 -58.22853 11689 ft 384 kts 95°
2026-05-05 23:58 -34.92324 -58.19586 12332 ft 398 kts 69°
2026-05-05 23:58 -34.90858 -58.16727 13299 ft 400 kts 44°
2026-05-05 23:58 -34.88660 -58.14671 14287 ft 399 kts 28°
2026-05-05 23:59 -34.86223 -58.13017 15156 ft 405 kts 25°
2026-05-05 23:59 -34.83701 -58.11422 16021 ft 412 kts 24°
2026-05-05 23:59 -34.81126 -58.09840 16921 ft 417 kts 23°
2026-05-05 23:59 -34.78510 -58.08243 17829 ft 424 kts 23°
2026-05-06 00:00 -34.75859 -58.06616 18628 ft 430 kts 23°
2026-05-06 00:00 -34.73172 -58.04956 19404 ft 436 kts 23°
2026-05-06 00:00 -34.70457 -58.03266 20235 ft 440 kts 23°
2026-05-06 00:00 -34.67721 -58.01555 21064 ft 444 kts 23°
2026-05-06 00:01 -34.64998 -57.99846 21847 ft 449 kts 23°
2026-05-06 00:01 -34.62202 -57.98091 22603 ft 455 kts 23°
2026-05-06 00:01 -34.59375 -57.96317 23352 ft 460 kts 23°
2026-05-06 00:01 -34.56511 -57.94520 23984 ft 465 kts 23°
2026-05-06 00:02 -34.53623 -57.92710 24594 ft 470 kts 23°
2026-05-06 00:02 -34.50703 -57.90880 25199 ft 475 kts 23°
2026-05-06 00:02 -34.47752 -57.89033 25813 ft 479 kts 22°
2026-05-06 00:02 -34.44780 -57.87175 26409 ft 483 kts 22°
2026-05-06 00:03 -34.41774 -57.85298 26980 ft 488 kts 22°
2026-05-06 00:03 -34.38748 -57.83410 27530 ft 492 kts 22°
2026-05-06 00:03 -34.35687 -57.81500 28073 ft 497 kts 22°
2026-05-06 00:03 -34.32601 -57.79578 28595 ft 501 kts 22°
2026-05-06 00:04 -34.29488 -57.77640 29109 ft 505 kts 22°
2026-05-06 00:04 -34.26354 -57.75692 29608 ft 509 kts 22°
2026-05-06 00:04 -34.23193 -57.73727 30073 ft 513 kts 22°
2026-05-06 00:04 -34.20009 -57.71750 30463 ft 515 kts 22°
2026-05-06 00:05 -34.13648 -57.67799 31545 ft 512 kts 22°
2026-05-06 00:05 -34.10525 -57.65860 32128 ft 509 kts 21°
2026-05-06 00:05 -34.07382 -57.63913 32714 ft 506 kts 21°
2026-05-06 00:06 -34.04256 -57.61978 33300 ft 503 kts 21°
2026-05-06 00:06 -34.01145 -57.60055 33793 ft 503 kts 21°
2026-05-06 00:06 -33.98036 -57.58138 34211 ft 503 kts 21°
2026-05-06 00:06 -33.94917 -57.56216 34569 ft 503 kts 21°
2026-05-06 00:07 -33.91798 -57.54297 34889 ft 504 kts 21°
2026-05-06 00:07 -33.88668 -57.52371 35216 ft 506 kts 21°
2026-05-06 00:07 -33.85537 -57.50446 35560 ft 506 kts 20°
2026-05-06 00:07 -33.82397 -57.48515 35899 ft 506 kts 20°
2026-05-06 00:08 -33.79264 -57.46591 36234 ft 507 kts 20°
2026-05-06 00:08 -33.76114 -57.44658 36512 ft 508 kts 20°
2026-05-06 00:08 -33.72963 -57.42726 36797 ft 509 kts 20°
2026-05-06 00:08 -33.69795 -57.40786 36941 ft 514 kts 20°
2026-05-06 00:09 -33.66604 -57.38836 36988 ft 516 kts 20°
2026-05-06 00:09 -33.60254 -57.34947 36989 ft 506 kts 20°
2026-05-06 00:10 -33.54010 -57.31128 36994 ft 504 kts 20°
2026-05-06 00:10 -33.47753 -57.27319 36964 ft 504 kts 20°
2026-05-06 00:11 -33.41496 -57.23515 37001 ft 504 kts 20°
2026-05-06 00:11 -33.35236 -57.19714 37002 ft 505 kts 20°
2026-05-06 00:12 -33.28966 -57.15911 36999 ft 505 kts 20°
2026-05-06 00:12 -33.22732 -57.12136 36994 ft 506 kts 20°
2026-05-06 00:13 -33.16456 -57.08343 36995 ft 506 kts 20°
2026-05-06 00:13 -33.10168 -57.04548 37003 ft 507 kts 20°
2026-05-06 00:14 -33.03874 -57.00754 37002 ft 507 kts 20°
2026-05-06 00:14 -32.97574 -56.96964 36997 ft 507 kts 20°
2026-05-06 00:15 -32.92290 -56.93790 36980 ft 507 kts 20°